Weather History for Wilmington, OH

Change the Weather History Date:

Tuesday, September 17, 2013

  Actual Average (KDAY) Record (KDAY)
Temperature  
Mean Temperature 60 °F 65 °F  
Max Temperature 75 °F 76 °F 92 °F (1931)
Min Temperature 48 °F 54 °F 39 °F (1959)
Degree Days  
Heating Degree Days 4 3  
Month to date heating degree days 26  
Since 1 July heating degree days 28  
Cooling Degree Days 0 3  
Month to date cooling degree days 74  
Year to date cooling degree days 856  
Growing Degree Days 10 (Base 50)    
Moisture  
Dew Point 49 °F    
Average Humidity 72    
Maximum Humidity 97    
Minimum Humidity 38    
Precipitation  
Precipitation 0.00 in 0.11 in 0.74 in (1933)
Month to date precipitation 1.90  
Year to date precipitation 30.21  
Snow  
Snow 0.00 in 0.00 in - ()
Month to date snowfall 0.0  
Since 1 July snowfall 0.0  
Since 1 September snowfall 0.0  
Snow Depth -    
Sea Level Pressure  
Sea Level Pressure 30.29 in    
Wind  
Wind Speed 6 mph (East)    
Max Wind Speed 10 mph    
Max Gust Speed 16 mph    
Visibility 10 miles    
Events      
T = Trace of Precipitation, MM = Missing Value Source: NWS Daily Summary

Daily Weather History Graph

Daily Weather History Graph

Search for Another Location

Airport:

Trip Planner

Search our weather history database for the weather conditions in past years. The results will help you decide how hot, cold, wet, or windy it might be!

Date:

Astronomy

Sep. 17, 2013 Rise Set
Actual Time 7:18 AM EDT 7:40 PM EDT
Civil Twilight 6:51 AM EDT 8:06 PM EDT
Nautical Twilight 6:20 AM EDT 8:38 PM EDT
Astronomical Twilight 5:47 AM EDT 9:10 PM EDT
Moon 6:26 PM EDT (9/17) 5:12 AM EDT (9/17)
Length of Visible Light 13h 15m
Length of Day
12h 21m
Waxing Gibbous, 96% of the Moon is Illuminated
Sep 17
Waxing Gibbous
Sep 19
Full
Sep 26
Last Quarter
Oct 4
New
Oct 11
First Quarter

Hourly Weather History & Observations

Time (EDT) Temp. Dew Point Humidity Pressure Visibility Wind Dir Wind Speed Gust Speed Precip Events Conditions
12:54 AM 53.1 °F 50.0 °F 89% 30.33 in 10.0 mi ENE 4.6 mph - N/A   Clear
1:54 AM 51.1 °F 48.9 °F 92% 30.33 in 10.0 mi ENE 6.9 mph - N/A   Clear
2:54 AM 51.1 °F 48.9 °F 92% 30.34 in 10.0 mi ENE 5.8 mph - N/A   Clear
3:54 AM 50.0 °F 48.0 °F 93% 30.33 in 10.0 mi ENE 6.9 mph - N/A   Clear
4:54 AM 48.9 °F 46.9 °F 93% 30.33 in 10.0 mi ENE 6.9 mph - N/A   Clear
5:54 AM 48.9 °F 46.9 °F 93% 30.33 in 10.0 mi ENE 8.1 mph - N/A   Clear
6:54 AM 48.9 °F 46.9 °F 93% 30.33 in 10.0 mi ENE 8.1 mph - N/A   Clear
7:54 AM 48.9 °F 48.0 °F 97% 30.35 in 7.0 mi ENE 8.1 mph - N/A   Clear
8:54 AM 52.0 °F 50.0 °F 93% 30.36 in 9.0 mi ENE 5.8 mph - N/A   Clear
9:54 AM 55.9 °F 51.1 °F 84% 30.35 in 10.0 mi East 4.6 mph - N/A   Clear
10:54 AM 62.1 °F 52.0 °F 70% 30.35 in 10.0 mi Variable 6.9 mph - N/A   Clear
11:54 AM 66.9 °F 52.0 °F 59% 30.34 in 10.0 mi East 6.9 mph - N/A   Clear
12:54 PM 70.0 °F 50.0 °F 49% 30.31 in 10.0 mi ESE 8.1 mph - N/A   Clear
1:54 PM 71.1 °F 48.9 °F 45% 30.29 in 10.0 mi Variable 3.5 mph - N/A   Clear
2:54 PM 73.9 °F 48.0 °F 40% 30.25 in 10.0 mi ENE 8.1 mph - N/A   Clear
3:54 PM 73.0 °F 46.0 °F 38% 30.23 in 10.0 mi East 6.9 mph - N/A   Clear
4:54 PM 72.0 °F 46.9 °F 41% 30.22 in 10.0 mi ESE 6.9 mph - N/A   Clear
5:54 PM 73.0 °F 48.9 °F 42% 30.21 in 10.0 mi East 10.4 mph 16.1 mph N/A   Clear
6:54 PM 69.1 °F 50.0 °F 51% 30.21 in 10.0 mi ESE 5.8 mph - N/A   Clear
7:54 PM 64.9 °F 52.0 °F 63% 30.21 in 10.0 mi East 4.6 mph - N/A   Clear
8:54 PM 62.1 °F 52.0 °F 70% 30.22 in 10.0 mi East 3.5 mph - N/A   Clear
9:54 PM 60.1 °F 52.0 °F 75% 30.22 in 10.0 mi East 3.5 mph - N/A   Clear
10:54 PM 59.0 °F 51.1 °F 75% 30.21 in 10.0 mi East 4.6 mph - N/A   Clear
11:54 PM 57.0 °F 51.1 °F 81% 30.20 in 10.0 mi ENE 4.6 mph - N/A   Partly Cloudy